Grey Islet, British Columbia

5:07 PM PDT on May 22, 2018 (GMT -0700)
Grey Islet

Weather History for CWEK - November, 2012

Change the Weather History Date:

Friday, November 30, 2012

  Actual Average (WUND) Record (WUND)
Temperature  
Mean Temperature 39 °F -  
Max Temperature 40 °F - - (-1)
Min Temperature 37 °F - - (-1)
Degree Days  
Heating Degree Days 26    
Moisture  
Dew Point 33 °F    
Average Humidity 78    
Maximum Humidity 87    
Minimum Humidity 66    
Precipitation  
Precipitation 0.08 in - - ()
Sea Level Pressure  
Sea Level Pressure 29.12 in    
Wind  
Wind Speed 41 mph ()    
Max Wind Speed 51 mph    
Max Gust Speed 62 mph    
Averages and records for this station are not official NWS values.
T = Trace of Precipitation, MM = Missing Value Source: Averaged Metar Reports

Daily Weather History Graph

Daily Weather History Graph

Search for Another Location

Airport or City:

Astronomy

Nov. 30, 2012 Rise Set
Actual Time 8:41 AM PST 4:22 PM PST
Civil Twilight 7:57 AM PST 5:05 PM PST
Nautical Twilight 7:12 AM PST 5:51 PM PST
Astronomical Twilight 6:28 AM PST 6:34 PM PST
Moon 6:25 PM PST (11/30) 10:16 AM PST (11/30)
Length of Visible Light 9h 07m
Length of Day
7h 41m
Waning Gibbous, 96% of the Moon is Illuminated
Nov 30
Waning Gibbous
Dec 6
Last Quarter
Dec 13
New
Dec 19
First Quarter
Dec 28
Full

Hourly Weather History & Observations

Time (PST) Temp. Windchill Dew Point Humidity Pressure Visibility Wind Dir Wind Speed Gust Speed Precip Events Conditions
12:00 AM 38.1 °F 23.5 °F 34.7 °F 87% 29.24 in - NE 46.0 mph 54.1 mph 0.02 in   Unknown
1:00 AM 38.8 °F 24.6 °F 34.2 °F 83% 29.22 in - NE 46.0 mph 52.9 mph N/A   Unknown
2:00 AM 38.7 °F 24.3 °F 33.8 °F 83% 29.21 in - NE 46.0 mph 58.7 mph 0.01 in   Unknown
3:00 AM 38.8 °F 24.3 °F 33.6 °F 82% 29.20 in - NE 48.3 mph 59.8 mph N/A   Unknown
4:00 AM 39 °F - 33 °F 70% 29.17 in - NE 50.6 mph - -  
4:00 AM 38.7 °F 23.8 °F 31.3 °F 75% 29.17 in - NE 50.6 mph 62.1 mph 0.01 in   Unknown
7:00 AM 38.7 °F 24.0 °F 31.6 °F 76% 29.13 in - NE 48.3 mph 58.7 mph N/A   Unknown
8:00 AM 39.0 °F 24.4 °F 31.8 °F 75% 29.11 in - NE 49.5 mph 58.7 mph N/A   Unknown
9:00 AM 39.4 °F 25.1 °F 32.0 °F 75% 29.11 in - NE 48.3 mph 57.5 mph N/A   Unknown
10:00 AM 40 °F - 33 °F 66% 29.09 in - NE 47.2 mph - -  
10:00 AM 39.7 °F 25.7 °F 31.5 °F 72% 29.09 in - NE 47.2 mph 55.2 mph N/A   Unknown
11:00 AM 39.7 °F 25.8 °F 31.5 °F 72% 29.09 in - NE 46.0 mph 55.2 mph N/A   Unknown
12:00 PM 39.7 °F 25.7 °F 31.8 °F 73% 29.08 in - NE 47.2 mph 55.2 mph N/A   Unknown
1:00 PM 40.5 °F 27.3 °F 33.3 °F 75% 29.08 in - NE 42.6 mph 51.8 mph N/A   Unknown
2:00 PM 40.3 °F 27.0 °F 33.3 °F 76% 29.09 in - NE 42.6 mph 50.6 mph 0.01 in   Unknown
3:00 PM 39.2 °F 25.5 °F 34.0 °F 82% 29.08 in - NE 42.6 mph 49.5 mph 0.04 in   Unknown
4:00 PM 39 °F - 34 °F 76% 29.08 in - NE 42.6 mph - -  
4:00 PM 38.7 °F 24.7 °F 34.0 °F 83% 29.08 in - NE 42.6 mph 50.6 mph 0.02 in   Unknown
5:00 PM 38.5 °F 24.5 °F 34.3 °F 85% 29.09 in - NE 42.6 mph 50.6 mph 0.05 in   Unknown
6:00 PM 38.3 °F 23.9 °F 34.7 °F 87% 29.09 in - NE 44.9 mph 54.1 mph 0.01 in   Unknown
7:00 PM 38.5 °F 24.1 °F 33.8 °F 83% 29.09 in - NE 46.0 mph 56.4 mph N/A   Unknown
8:00 PM 39.0 °F 24.7 °F 33.8 °F 82% 29.08 in - NE 47.2 mph 56.4 mph 0.01 in   Unknown
9:00 PM 39.4 °F 25.2 °F 33.4 °F 79% 29.08 in - NE 47.2 mph 55.2 mph N/A   Unknown
10:00 PM 39 °F - 34 °F 74% 29.11 in - NE 44.9 mph - -  
10:00 PM 39.0 °F 25.0 °F 33.6 °F 81% 29.11 in - NE 44.9 mph 50.6 mph N/A   Unknown
11:00 PM 37.9 °F 23.6 °F 33.8 °F 85% 29.11 in - NE 43.7 mph 51.8 mph 0.04 in   Unknown